Zurück zum Katalog

CRRES DEB

CANISTER

AktivHEO
NORAD 21635·DEBRIS·🇺🇸 United States

Gestartet Jul 25, 1990 von Cape Canaveral Space Force Station

Loading…

Nächste Überflüge (nächste 24 Stunden)

TLE

AktuellSource: Space-Track

Epoche: Sep 12, 2026, 21:42 UTC

1 21635U 90065M   26255.90471518  .00000704  00000-0  52539-3 0  9990
2 21635  17.9004 131.4493 6878462 173.0185 207.1024  2.75362646134040

Verfolge CRRES DEB in Echtzeit mit AllMySat

Download on the App Store